SM4TUV Weather Reports


Display with metric or nautical units.
time (UTC)temp
F
wind
direction
speed
MPH
gust
MPH
rain 1hr
in
rain 24hr
in
rain mn
in
humidity
%
barometer
mb
20260906050030 47 195 4.0 6.0 0.00 0.02 0.00 85 979.7
20260906045130 45 177 3.0 4.0 0.00 0.02 0.00 90 979.5
20260906044230 44 191 3.0 4.0 0.00 0.02 0.00 90 979.3
20260906042431 44 197 4.0 6.0 0.00 0.02 0.00 89 979.3
20260906041530 44 204 3.0 3.0 0.00 0.02 0.00 88 979.1
20260906040630 45 203 3.0 4.0 0.00 0.02 0.00 85 979.0
20260906034830 46 92 3.0 4.0 0.00 0.02 0.00 85 978.8
20260906033931 46 90 3.0 4.0 0.00 0.02 0.00 86 978.6
20260906033030 46 103 3.0 4.0 0.00 0.02 0.00 87 978.5
20260906032130 45 146 2.0 3.0 0.00 0.02 0.00 89 978.6
20260906031230 45 203 2.0 2.0 0.00 0.02 0.00 90 978.4
20260906025430 45 202 1.0 2.0 0.00 0.02 0.00 89 978.3
20260906024530 45 216 1.0 2.0 0.00 0.02 0.00 90 978.0
20260906021830 45 197 3.0 3.0 0.00 0.02 0.00 89 977.8
20260906020930 45 186 2.0 3.0 0.00 0.02 0.00 89 977.7
20260906020030 45 177 3.0 3.0 0.00 0.02 0.00 88 977.7
20260906015130 45 213 2.0 3.0 0.00 0.02 0.00 87 977.4
20260906014230 46 206 3.0 4.0 0.00 0.02 0.00 84 977.4
20260906013330 47 135 2.0 3.0 0.00 0.02 0.00 83 977.2
20260906012430 47 117 3.0 4.0 0.00 0.02 0.00 84 977.0
20260906011530 46 142 2.0 4.0 0.00 0.02 0.00 86 977.0
20260906010630 46 24 1.0 2.0 0.00 0.02 0.00 85 976.8
20260906005730 46 101 2.0 3.0 0.00 0.02 0.00 85 977.0
20260906004830 46 117 2.0 3.0 0.00 0.02 0.00 86 976.6
20260906003931 46 99 3.0 4.0 0.00 0.02 0.00 86 976.5
20260906003030 46 89 2.0 3.0 0.00 0.02 0.00 85 976.5
20260906002130 46 117 2.0 3.0 0.00 0.02 0.00 85 976.3
20260906001230 46 110 2.0 3.0 0.00 0.02 0.00 84 976.1
20260906000330 46 98 2.0 4.0 0.00 0.02 0.00 84 976.1
20260905233630 47 90 4.0 5.0 0.00 0.02 0.00 84 975.9
20260905231830 47 97 4.0 5.0 0.00 0.02 0.00 85 975.8
20260905230930 47 58 4.0 5.0 0.00 0.02 0.00 85 975.7
20260905225130 47 92 4.0 5.0 0.00 0.02 0.00 85 975.6
20260905224230 47 87 4.0 4.0 0.00 0.02 0.00 84 975.4
20260905223330 47 100 4.0 4.0 0.00 0.02 0.00 84 975.5
20260905222431 47 103 4.0 5.0 0.00 0.02 0.00 84 975.3
20260905221530 47 92 3.0 4.0 0.00 0.02 0.00 84 975.2
20260905220630 48 90 4.0 5.0 0.00 0.02 0.00 84 974.9
20260905215730 48 97 3.0 4.0 0.00 0.02 0.02 84 974.9
20260905213930 48 84 3.0 4.0 0.00 0.02 0.02 83 974.7
20260905212130 49 94 3.0 4.0 0.00 0.02 0.02 83 974.4
20260905211231 49 90 2.0 2.0 0.00 0.02 0.02 82 974.3
20260905210330 50 92 2.0 3.0 0.00 0.02 0.02 82 974.1
20260905205430 50 91 3.0 4.0 0.00 0.02 0.02 82 974.0
20260905204530 51 98 3.0 4.0 0.00 0.02 0.02 82 973.9
20260905203630 51 93 2.0 3.0 0.00 0.02 0.02 82 973.9
20260905202730 50 83 2.0 3.0 0.00 0.02 0.02 81 973.9
20260905201830 51 71 2.0 4.0 0.00 0.02 0.02 81 973.6
20260905195130 52 97 2.0 4.0 0.00 0.02 0.02 80 973.3
20260905194230 52 98 2.0 3.0 0.00 0.02 0.02 79 973.2
20260905193330 52 127 3.0 3.0 0.00 0.02 0.02 78 973.2
20260905192430 52 112 2.0 2.0 0.00 0.02 0.02 78 972.9
20260905191530 52 115 1.0 2.0 0.00 0.02 0.02 77 973.0
20260905185730 53 135 1.0 2.0 0.00 0.02 0.02 74 972.9
20260905184830 53 131 2.0 2.0 0.00 0.02 0.02 74 972.9
20260905183931 53 133 3.0 3.0 0.00 0.02 0.02 74 972.7
20260905183030 53 135 3.0 3.0 0.00 0.02 0.02 75 972.5
20260905182130 53 139 3.0 4.0 0.00 0.02 0.02 75 972.2
20260905181230 54 150 4.0 4.0 0.00 0.02 0.02 74 972.1
20260905175431 54 123 3.0 4.0 0.00 0.02 0.02 74 972.0
20260905174530 55 137 3.0 4.0 0.00 0.02 0.02 72 971.8
20260905173630 56 110 4.0 8.0 0.00 0.02 0.02 70 971.7
20260905172730 56 153 4.0 6.0 0.00 0.02 0.02 70 971.5
20260905171830 56 178 4.0 4.0 0.00 0.02 0.02 70 971.4
20260905170930 57 161 4.0 4.0 0.00 0.02 0.02 69 971.3
20260905170030 57 162 5.0 7.0 0.00 0.02 0.02 67 971.2
20260905165131 58 143 3.0 5.0 0.00 0.02 0.02 66 971.1
20260905164231 60 127 5.0 8.0 0.00 0.02 0.02 63 971.0
20260905163330 61 119 2.0 4.0 0.00 0.02 0.02 63 970.8
20260905162430 61 293 2.0 6.0 0.00 0.02 0.02 62 970.6
20260905161530 60 304 3.0 6.0 0.00 0.02 0.02 65 970.4
20260905160630 61 225 1.0 2.0 0.00 0.02 0.02 62 970.3
20260905154830 61 221 1.0 2.0 0.00 0.02 0.02 62 970.2
20260905153931 61 239 1.0 2.0 0.00 0.02 0.02 62 970.1
20260905153030 62 236 2.0 3.0 0.00 0.02 0.02 61 969.9
20260905152130 62 276 2.0 3.0 0.00 0.02 0.02 60 969.9
20260905151230 61 280 2.0 3.0 0.00 0.02 0.02 61 969.8
20260905150330 60 296 2.0 2.0 0.00 0.02 0.02 61 969.8
20260905144530 61 359 3.0 5.0 0.00 0.02 0.02 60 969.8
20260905143630 62 1 5.0 7.0 0.00 0.02 0.02 58 969.6
20260905142730 63 41 5.0 7.0 0.00 0.02 0.02 55 969.5
20260905141830 65 347 4.0 5.0 0.00 0.02 0.02 52 969.3
20260905140931 66 298 5.0 7.0 0.00 0.02 0.02 50 969.1
20260905140030 68 253 4.0 5.0 0.00 0.02 0.02 49 969.0
20260905134230 65 214 4.0 5.0 0.00 0.02 0.02 54 968.7
20260905133330 64 209 4.0 6.0 0.00 0.02 0.02 56 968.8
20260905132431 64 257 4.0 5.0 0.00 0.02 0.02 59 968.8
20260905131530 61 211 4.0 4.0 0.00 0.02 0.02 66 968.7
20260905130630 58 187 4.0 4.0 0.00 0.02 0.02 70 968.6
20260905125730 58 199 3.0 4.0 0.00 0.02 0.02 71 968.6
20260905124830 58 199 4.0 4.0 0.02 0.02 0.02 70 968.4
20260905122130 59 222 2.0 2.0 0.02 0.02 0.02 67 968.4
20260905121230 58 195 3.0 4.0 0.02 0.02 0.02 67 968.4
20260905120330 59 83 5.0 8.0 0.02 0.02 0.02 64 968.4
20260905115431 60 354 6.0 9.0 0.02 0.02 0.02 65 968.4
20260905113630 63 292 7.0 9.0 0.00 0.00 0.00 58 968.2
20260905111830 63 273 4.0 8.0 0.00 0.00 0.00 59 967.9
20260905110930 63 280 3.0 5.0 0.00 0.00 0.00 61 967.9
20260905110030 63 321 4.0 7.0 0.00 0.00 0.00 61 967.8
20260905104230 62 5 3.0 5.0 0.00 0.00 0.00 62 967.7
20260905102431 60 310 6.0 7.0 0.00 0.00 0.00 65 967.7
20260905101530 63 349 3.0 5.0 0.00 0.00 0.00 63 967.6
20260905100630 61 342 3.0 4.0 0.00 0.00 0.00 65 967.5
20260905095730 61 340 2.0 4.0 0.00 0.00 0.00 66 967.5
20260905094830 60 328 4.0 4.0 0.00 0.00 0.00 67 967.4
20260905093030 61 18 1.0 2.0 0.00 0.00 0.00 66 967.3
20260905092130 62 321 1.0 3.0 0.00 0.00 0.00 65 967.2
20260905091231 60 314 2.0 3.0 0.00 0.00 0.00 66 967.2
20260905090330 60 304 2.0 2.0 0.00 0.00 0.00 66 967.1
20260905085430 60 18 2.0 3.0 0.00 0.00 0.00 68 967.1
20260905084530 60 46 3.0 4.0 0.00 0.00 0.00 68 967.1
20260905082730 58 358 2.0 3.0 0.00 0.00 0.00 72 966.9
20260905081830 58 343 2.0 3.0 0.00 0.00 0.00 73 966.8
20260905080930 58 66 2.0 2.0 0.00 0.00 0.00 75 966.9
20260905080031 56 94 1.0 2.0 0.00 0.00 0.00 78 966.9
20260905075130 54 65 1.0 2.0 0.00 0.00 0.00 81 966.9
20260905074231 53 71 2.0 3.0 0.00 0.00 0.00 81 966.8
20260905073330 53 56 2.0 3.0 0.00 0.00 0.00 81 966.8
20260905072431 52 50 2.0 2.0 0.00 0.00 0.00 82 966.7
20260905071530 52 57 2.0 2.0 0.00 0.00 0.00 83 966.5
20260905070630 50 90 1.0 3.0 0.00 0.00 0.00 85 966.6
20260905065730 50 73 2.0 3.0 0.00 0.00 0.00 84 966.5
20260905064830 49 93 3.0 4.0 0.00 0.00 0.00 85 966.5
20260905063931 49 86 2.0 3.0 0.00 0.00 0.00 86 966.2
20260905063030 48 82 2.0 3.0 0.00 0.00 0.00 86 966.1
20260905062130 48 85 3.0 4.0 0.00 0.00 0.00 86 966.1
20260905061232 47 142 2.0 3.0 0.00 0.00 0.00 87 966.2
20260905060330 47 137 3.0 4.0 0.00 0.00 0.00 87 966.0
20260905055431 47 109 3.0 3.0 0.00 0.00 0.00 87 966.0
20260905053630 46 93 2.0 3.0 0.00 0.00 0.00 87 965.9
20260905052731 46 63 2.0 3.0 0.00 0.00 0.00 87 965.8
20260905051830 46 48 2.0 3.0 0.00 0.00 0.00 88 965.8
20260905050932 46 41 3.0 3.0 0.00 0.00 0.00 88 965.8